Temperature
21 21 21 21 24 25 24 24 24 24 24 23 23 23 23 23 22 21 18 18 17 17 17 17 18 17 17 17 17 17 17 17 17 17 17 18 17 17 17 17 17 17 17 17 17 17 17 17 17
21 21 21 23 25 25 24 24 24 24 23 22 22 23 23 22 20 19 18 18 17 17 17 17 18 17 17 17 17 17 17 18 17 17 17 17 17 17 17 17 17 17 17 17 17 17 17 17 17
21 21 22 24 25 25 24 24 24 23 23 23 23 22 22 21 19 19 18 18 17 17 17 17 18 17 17 17 17 17 17 18 17 17 17 17 17 17 17 17 17 17 17 17 17 17 17 17 17
21 21 23 25 24 24 24 25 24 24 23 23 23 22 21 19 19 18 18 18 17 17 17 17 17 17 17 17 17 17 17 17 17 17 17 17 17 17 17 17 17 17 17 17 17 17 17 17 17
21 23 24 24 24 24 25 24 24 24 24 23 23 22 20 18 18 18 18 17 17 17 17 17 17 17 17 17 17 17 17 17 17 17 17 17 17 17 17 17 17 17 17 17 17 17 17 17 17
22 24 24 24 24 24 24 24 24 24 23 23 22 22 20 18 18 18 17 17 17 17 17 17 17 17 17 17 17 17 17 17 17 17 17 17 17 17 17 17 17 17 17 17 17 17 17 17 17
23 24 24 24 23 24 24 23 24 24 23 23 22 22 20 18 18 17 17 17 17 17 17 17 17 17 17 17 17 17 17 17 17 17 17 17 17 16 16 16 16 16 16 16 17 17 17 17 17
22 24 24 24 23 23 24 23 23 23 23 22 22 22 21 19 18 17 17 17 17 17 17 17 17 17 17 17 17 17 17 17 17 17 17 17 16 16 16 16 16 16 16 16 16 16 16 16 16
22 24 24 24 24 24 24 23 23 22 22 21 21 21 20 18 18 18 17 17 17 17 17 17 17 17 17 17 17 17 17 17 17 16 16 16 16 16 16 16 16 16 16 16 16 16 16 16 16
23 24 24 24 24 24 23 23 23 23 23 22 21 19 19 18 18 18 18 18 18 17 17 17 17 17 17 16 16 16 16 16 16 16 16 16 16 16 16 16 16 16 16 16 16 16 16 16 16
24 24 24 24 23 23 23 23 23 23 23 23 21 20 19 18 18 18 18 18 18 17 17 17 17 17 17 17 16 16 16 16 16 16 16 16 16 16 16 16 16 16 16 15 15 15 15 15 15
23 23 23 23 22 23 23 22 22 22 22 22 21 20 19 19 19 19 18 18 17 17 17 17 17 17 17 17 16 16 16 16 16 16 16 16 16 15 15 16 15 15 15 15 15 15 15 15 15
24 23 23 22 22 22 22 22 22 21 21 20 20 19 19 19 19 18 18 18 18 17 17 17 17 17 16 16 16 16 16 16 16 16 16 15 15 15 15 15 15 15 15 15 15 15 15 15 15
23 23 23 23 23 22 23 22 22 21 20 20 20 19 19 19 19 18 18 18 18 17 17 17 16 16 16 16 16 16 16 16 16 16 15 15 15 15 15 15 15 15 15 15 15 15 15 15 15
23 24 23 23 23 23 23 23 23 21 20 20 20 19 19 19 18 18 18 18 18 17 17 17 16 16 16 16 16 16 16 16 15 15 15 15 15 15 15 15 15 15 15 15 15 15 14 14 14
24 24 23 23 23 23 23 22 23 21 21 21 20 20 19 19 18 18 18 18 18 17 17 17 16 16 16 16 16 16 15 15 15 15 15 15 15 15 15 15 15 14 14 14 14 14 14 14 14
24 24 23 23 23 23 23 23 23 21 21 21 20 20 19 19 19 18 18 18 17 17 17 17 16 16 16 16 15 15 15 15 15 15 15 15 15 15 15 15 14 14 14 14 14 14 14 14 14
24 24 23 23 23 23 23 23 23 21 21 21 20 20 20 19 19 18 18 17 17 17 17 17 16 16 16 16 15 15 15 15 15 15 15 15 15 15 15 14 14 14 14 14 14 14 14 14 14
24 24 23 23 23 23 23 23 23 22 21 21 20 20 20 19 19 18 17 17 17 17 16 16 16 16 16 16 15 15 15 15 15 15 15 15 15 15 14 14 14 14 14 14 14 13 13 13 13
24 23 23 23 23 23 23 23 23 22 21 21 21 20 20 19 19 18 17 17 17 17 16 16 16 16 16 16 15 15 15 15 15 15 15 15 14 14 14 14 14 14 14 14 13 13 13 13 13
23 23 23 23 23 23 22 23 23 23 21 20 20 20 20 19 19 18 18 17 17 17 16 16 16 16 16 15 15 15 15 15 15 15 15 14 14 14 14 14 14 14 14 14 13 13 13 13 13
23 24 23 23 23 23 23 23 23 23 22 21 20 20 20 19 19 18 18 17 17 17 16 16 16 15 15 15 15 15 15 15 14 14 14 14 14 14 14 14 14 14 14 14 13 13 13 13 13
23 23 23 23 23 23 23 23 23 23 22 22 21 20 19 19 18 18 18 17 17 17 16 16 16 15 15 15 15 15 14 14 14 14 14 14 14 14 13 13 13 13 13 13 13 13 13 13 13
23 23 22 23 23 22 23 23 23 23 22 22 22 20 19 19 18 18 17 17 17 16 16 16 15 15 15 15 15 15 14 14 14 14 14 14 13 13 13 13 13 13 13 13 13 13 13 13 13
23 23 22 22 22 22 22 22 22 23 22 22 21 20 19 18 18 17 17 17 16 16 16 16 15 15 15 15 15 15 14 14 14 14 13 13 13 13 13 13 13 13 13 13 13 13 13 12 12
23 23 22 22 22 22 22 22 23 22 21 20 20 19 19 18 18 17 17 16 16 16 16 15 15 15 15 15 14 14 14 14 14 14 13 13 13 13 13 13 13 13 13 13 13 13 12 12 12
23 23 23 23 22 22 22 22 22 21 21 20 19 19 18 18 17 17 16 16 16 16 15 15 15 15 15 15 14 14 14 14 14 13 13 13 13 13 13 13 12 12 12 12 12 12 12 12 12
23 23 22 22 21 21 22 22 22 21 21 20 20 19 18 17 17 16 16 16 16 15 15 15 15 14 14 14 14 14 14 14 14 13 13 13 13 13 12 12 12 12 12 12 12 12 12 12 12
21 22 22 22 22 21 21 22 22 22 21 20 20 18 17 17 16 16 15 15 15 15 15 15 15 14 14 14 14 14 14 13 13 13 13 13 13 12 12 12 12 12 12 12 12 11 11 11 11
21 22 22 21 21 21 21 22 21 21 20 19 19 18 17 16 16 15 15 15 15 15 15 15 14 14 14 14 14 13 13 13 13 13 13 12 12 12 12 12 12 12 11 11 11 11 11 11 11
Wind_Speed
3 2 2 2 2 2 5 4 3 4 4 5 6 5 6 6 5 5 4 5 4 6 6 7 6 6 7 7 8 8 8 8 8 8 8 8 7 8 8 8 8 8 8 8 8 8 8 9 8
1 1 2 2 2 4 5 4 5 6 6 5 5 5 6 7 6 6 5 5 5 6 6 7 7 6 7 7 7 8 8 8 7 7 8 8 8 8 8 8 8 8 8 7 8 8 8 8 8
2 1 1 0 1 3 5 5 6 6 5 3 4 5 5 5 5 5 5 6 6 6 6 8 6 6 7 7 7 8 8 8 8 8 8 8 8 8 8 8 8 8 8 8 8 8 8 8 8
2 1 1 2 6 5 5 5 6 6 5 3 4 5 5 5 4 6 7 7 7 6 6 8 6 6 6 7 7 7 8 8 8 8 8 8 8 8 8 8 8 8 8 8 8 8 8 9 8
1 1 3 5 6 5 4 4 4 4 4 4 5 6 6 5 7 8 8 7 6 6 6 7 7 6 6 7 7 7 8 8 9 9 8 8 8 8 8 8 8 8 8 8 8 8 8 8 8
1 2 3 5 6 5 4 3 4 4 5 5 5 6 6 6 7 8 8 7 6 6 6 7 7 7 7 7 7 8 8 8 8 8 8 8 7 8 8 8 8 8 8 8 8 8 8 8 7
1 2 4 5 6 5 4 3 3 4 5 4 3 5 6 7 7 7 7 7 6 6 6 5 6 7 7 7 7 8 8 8 8 8 8 8 8 8 8 8 8 8 8 8 8 8 8 8 8
0 3 5 4 5 4 4 4 3 3 4 4 2 3 5 8 8 8 7 6 6 5 5 5 5 5 5 7 7 7 8 8 8 8 8 7 7 7 7 8 8 8 8 8 8 8 8 9 8
2 3 4 4 4 5 6 6 4 4 5 4 3 4 7 11 10 8 6 5 5 4 4 4 4 5 5 5 7 7 7 6 6 7 6 4 5 6 6 9 8 8 9 9 9 9 8 7 8
2 3 3 3 3 5 6 5 5 5 5 5 6 6 9 10 9 8 6 5 5 4 4 4 4 4 4 4 5 4 5 4 5 5 5 5 6 6 6 9 8 8 8 8 8 7 5 2 4
2 2 3 3 3 4 5 4 3 5 3 3 6 9 11 10 8 7 6 5 5 4 4 4 4 4 4 3 4 3 3 3 4 5 5 4 4 4 5 4 5 5 5 5 6 4 5 4 4
3 2 2 3 4 4 4 4 3 2 1 2 6 10 11 10 8 7 6 5 5 5 4 4 4 4 4 4 4 3 3 3 3 4 4 3 3 3 4 3 4 4 4 4 4 4 5 4 4
4 3 3 3 4 4 5 4 3 2 2 4 8 10 10 9 8 6 5 5 5 5 4 4 3 3 3 3 3 3 3 3 3 3 3 4 3 3 3 4 4 4 4 3 3 3 4 4 4
4 4 4 4 4 4 5 4 3 3 4 7 9 9 9 8 7 6 5 5 5 5 4 4 3 3 3 3 2 3 3 3 3 3 3 4 3 3 3 4 3 3 3 3 3 4 3 3 3
5 5 4 3 4 4 4 4 4 4 6 7 8 8 8 7 6 6 6 5 5 5 5 4 4 3 3 3 3 3 3 3 3 2 3 4 3 3 3 3 3 3 3 3 3 4 3 3 3
5 5 4 3 3 4 6 4 3 5 7 7 7 7 7 7 7 6 6 5 5 5 5 5 4 3 3 3 2 2 3 3 2 2 3 3 3 3 3 2 2 2 3 2 2 2 3 3 3
6 5 4 3 4 4 5 3 3 5 6 7 7 7 7 7 7 6 6 6 5 5 5 5 4 4 3 3 2 2 3 2 2 2 2 2 3 3 3 2 2 2 2 2 2 2 2 3 3
5 5 4 3 3 5 5 4 3 4 6 6 6 7 7 7 7 7 6 6 6 5 4 4 4 3 3 3 2 2 2 2 2 2 2 2 2 2 3 2 2 2 2 1 2 2 3 3 3
4 5 4 3 3 4 6 5 4 5 6 6 7 7 7 7 6 6 7 7 6 5 5 4 4 4 3 3 2 2 2 2 2 2 2 2 2 2 2 1 2 2 2 2 2 2 3 2 2
7 6 5 3 3 4 4 6 5 5 7 7 7 7 7 7 7 7 7 7 7 6 5 4 4 4 3 2 2 2 2 1 1 1 2 2 2 2 2 2 2 2 2 2 2 2 1 1 0
8 8 6 5 3 5 5 6 6 5 6 6 6 6 6 7 7 7 8 8 8 7 7 5 5 4 4 4 3 2 2 1 1 1 1 1 1 2 1 1 1 1 1 1 1 2 2 1 0
8 6 7 7 7 5 6 5 5 5 6 6 7 7 6 7 7 7 7 8 7 7 6 6 5 5 5 5 4 4 3 2 1 1 1 1 1 1 1 1 1 2 1 1 1 1 1 1 1
5 4 6 7 8 7 7 7 3 4 5 6 6 7 6 6 6 7 6 7 7 7 6 6 5 5 5 5 5 4 3 2 1 1 2 1 1 1 1 1 1 1 1 1 1 1 1 1 1
5 5 5 5 7 9 7 7 4 3 4 4 5 5 6 6 5 5 5 5 6 6 6 5 6 6 5 6 6 5 4 3 3 2 2 1 1 1 1 1 1 1 1 1 1 1 1 1 1
7 7 5 6 6 5 3 5 4 0 1 2 4 4 5 5 5 5 4 5 5 6 6 6 6 6 6 6 6 5 5 4 4 3 2 2 2 1 1 1 1 1 1 1 1 1 1 2 2
9 10 7 5 5 3 4 5 2 1 0 1 2 3 3 4 4 4 4 5 5 6 6 6 6 6 6 6 6 5 5 4 3 3 2 3 2 2 1 1 1 1 1 2 2 2 2 2 2
8 9 7 6 6 6 5 4 3 2 2 2 2 3 3 3 3 3 4 4 4 5 6 6 6 5 6 6 6 5 5 4 3 3 3 2 2 2 2 2 2 2 2 2 2 2 2 2 2
4 5 5 7 6 7 6 7 4 4 3 2 2 2 2 2 3 3 3 3 4 4 4 5 5 5 5 5 5 4 5 4 4 3 3 3 3 3 3 3 2 2 2 2 2 2 2 2 2
6 6 6 6 6 6 6 3 1 2 2 2 2 2 2 2 3 3 2 3 3 3 4 4 5 5 4 5 5 5 4 4 4 4 4 3 3 3 3 3 3 2 2 2 3 3 3 3 3
6 6 8 8 7 7 7 4 4 2 1 1 2 2 2 2 3 3 2 2 2 3 3 4 5 5 5 4 4 4 4 4 3 3 3 3 3 3 3 3 3 2 2 2 3 3 3 3 3
Wind_Direction
187 180 217 236 209 122 90 86 87 94 80 69 68 68 67 52 43 70 88 98 95 109 106 109 93 84 78 80 78 74 73 75 78 80 82 84 83 89 92 91 89 86 87 85 82 80 81 81 79
157 190 236 247 218 132 102 99 98 87 96 103 84 77 76 69 62 89 104 102 109 109 103 93 90 84 80 79 80 79 78 77 79 81 81 82 81 84 87 89 91 88 88 88 84 82 83 81 78
140 251 283 178 112 101 112 110 106 100 103 103 91 66 59 69 84 96 100 116 117 108 100 91 87 83 78 78 79 79 79 78 78 80 81 81 81 84 85 87 88 87 88 88 87 84 83 83 80
202 206 182 119 104 88 103 116 122 120 104 88 102 92 79 62 82 97 112 119 118 111 101 95 86 82 78 78 75 78 79 78 79 80 80 80 81 82 82 84 85 85 85 84 83 85 85 83 81
211 202 138 121 109 106 106 110 132 120 108 101 106 100 94 85 93 108 118 120 116 109 99 96 86 81 79 78 75 75 79 80 80 80 78 78 79 82 81 79 80 80 80 80 80 85 84 82 80
182 189 150 133 121 120 126 131 132 113 105 109 113 108 98 108 114 115 119 119 111 107 104 102 101 89 80 77 76 75 79 80 81 82 81 80 81 80 80 80 80 78 79 78 80 82 80 80 80
147 142 132 130 133 134 129 132 130 119 112 105 117 113 118 128 124 125 121 113 107 106 103 97 101 108 106 88 79 80 79 81 83 81 79 83 87 84 82 80 79 80 78 79 80 80 80 79 77
157 148 139 143 150 134 134 136 122 113 105 107 132 117 124 138 137 131 121 116 112 108 102 96 95 95 100 103 91 85 81 79 80 80 78 84 99 98 91 87 78 78 79 79 80 80 80 78 75
200 173 155 155 155 138 145 141 127 115 119 113 100 80 111 134 141 137 129 125 114 103 96 94 89 89 88 89 100 102 94 88 97 95 94 96 83 87 91 74 77 80 83 83 83 82 84 90 91
188 170 142 136 145 137 145 146 143 146 137 136 125 114 126 139 145 142 140 136 128 115 104 98 96 90 88 86 93 91 90 96 90 85 87 81 75 68 73 92 87 88 94 97 89 92 110 113 95
140 130 124 131 142 143 145 141 153 159 149 156 152 144 143 146 146 144 141 136 124 117 106 96 97 90 88 88 82 75 79 83 87 82 82 80 80 80 72 80 102 99 102 88 96 98 74 73 73
135 120 138 132 139 150 154 151 154 173 120 108 137 144 148 153 153 153 146 138 134 124 115 106 97 95 87 84 83 80 80 79 79 80 77 80 74 70 70 72 71 76 78 72 68 65 72 67 67
152 133 120 130 140 149 151 156 155 149 101 123 136 146 153 156 159 157 150 147 142 136 132 123 112 97 91 84 80 83 76 75 86 80 80 80 76 75 77 77 75 68 72 73 65 64 66 61 58
133 136 137 143 148 156 154 159 177 160 141 140 147 156 161 165 169 165 165 162 155 151 142 135 128 111 103 99 93 80 74 79 76 77 74 79 81 78 77 79 76 69 65 64 68 70 71 67 63
151 146 146 159 172 174 176 179 195 162 159 156 160 164 166 171 177 184 180 177 171 160 152 139 137 131 119 105 93 90 82 83 82 79 73 76 78 80 80 73 76 74 73 72 69 75 74 72 75
177 186 182 164 186 187 211 205 162 165 174 173 174 173 176 180 189 191 185 181 174 166 157 147 146 150 139 128 118 99 87 84 83 81 76 77 82 78 75 70 70 71 70 71 77 76 83 78 73
199 200 188 171 187 195 213 221 159 173 184 186 188 186 189 190 196 191 183 178 173 168 163 159 153 154 146 135 122 104 101 95 91 84 77 74 79 84 84 68 67 80 83 77 80 81 83 84 75
197 201 201 204 181 202 215 225 194 188 197 201 200 198 197 200 197 189 181 173 170 169 166 163 163 161 147 143 133 118 110 102 89 82 71 67 76 87 91 91 84 79 86 84 90 99 97 88 90
224 221 217 216 192 216 222 233 226 201 206 211 211 207 202 203 191 184 177 175 176 177 177 172 177 171 164 159 157 151 140 121 101 79 73 81 93 99 95 85 85 80 90 99 109 111 117 106 101
223 227 221 197 187 226 235 250 242 219 215 215 214 208 203 198 192 186 185 183 186 185 187 184 184 181 181 182 179 172 141 120 93 89 80 77 85 91 103 107 106 109 105 110 118 127 132 116 113
223 231 230 227 213 216 244 248 224 213 214 217 220 218 211 206 201 198 196 194 192 192 193 190 191 190 189 180 165 149 143 152 135 113 101 78 87 91 97 123 122 127 132 127 154 173 182 175 137
227 230 236 232 235 234 238 267 227 212 211 211 212 214 215 212 212 209 205 201 198 196 194 195 193 195 187 181 180 179 185 181 190 167 144 130 113 107 100 118 143 140 119 145 175 172 197 203 186
234 221 223 231 243 253 239 257 243 204 223 216 211 210 207 207 206 204 206 204 198 192 193 197 194 192 188 187 186 196 198 191 177 166 155 154 140 140 137 134 156 149 142 159 170 163 214 205 205
188 184 191 222 242 249 244 246 259 213 236 221 200 201 206 205 202 200 199 197 194 187 188 195 193 193 194 197 196 197 193 190 181 183 178 179 168 169 168 159 171 177 178 191 201 189 190 215 191
206 218 222 223 225 242 200 239 252 80 265 234 211 203 198 195 193 191 186 183 187 188 190 189 189 192 193 197 197 197 196 195 196 196 191 201 196 184 188 185 191 187 204 208 207 223 220 210 208
211 225 238 251 249 235 204 234 215 124 116 232 214 194 184 185 188 187 184 181 185 189 193 195 195 194 190 195 195 196 196 201 206 211 212 217 217 203 193 199 196 203 204 216 213 231 223 219 211
211 222 249 262 263 259 231 223 216 163 169 144 155 163 174 186 185 184 182 181 182 190 195 199 198 195 191 195 195 197 201 207 212 212 211 212 210 199 198 204 208 209 213 223 219 224 225 222 224
253 208 215 235 249 249 239 236 228 190 193 179 167 170 179 174 178 180 183 184 183 187 195 196 197 198 194 195 195 197 204 207 209 210 203 202 202 200 202 207 212 214 222 223 216 228 233 217 213
194 207 220 232 249 259 256 236 152 181 170 187 198 188 175 171 171 167 163 174 180 184 188 189 192 194 194 197 196 194 198 201 201 203 204 204 203 202 208 206 206 210 220 224 213 223 224 227 222
231 228 225 238 240 246 265 260 107 141 142 183 200 180 161 161 162 156 153 152 159 177 193 191 193 194 196 198 196 196 194 195 202 204 208 204 200 202 210 207 206 211 224 234 228 222 229 229 233
Height
1509 1509 1509 1511 1509 1508 1513 1513 1510 1512 1513 1516 1516 1515 1515 1517 1520 1528 1528 1526 1527 1527 1527 1526 1526 1525 1525 1525 1525 1524 1524 1524 1524 1524 1524 1524 1523 1523 1523 1523 1523 1524 1524 1524 1524 1524 1525 1525 1525
1510 1510 1512 1511 1507 1513 1517 1512 1513 1513 1516 1518 1518 1518 1518 1521 1524 1526 1527 1527 1528 1528 1528 1528 1527 1527 1527 1526 1526 1526 1526 1525 1525 1525 1525 1525 1525 1524 1525 1525 1525 1525 1525 1525 1526 1526 1526 1526 1526
1510 1510 1513 1509 1509 1512 1516 1512 1513 1516 1518 1518 1519 1520 1521 1524 1526 1528 1528 1528 1529 1529 1530 1529 1528 1528 1528 1528 1528 1527 1527 1527 1527 1526 1526 1526 1526 1526 1526 1526 1526 1526 1526 1526 1527 1527 1527 1527 1527
1511 1513 1513 1510 1513 1512 1511 1513 1514 1516 1518 1519 1519 1521 1525 1527 1528 1529 1529 1529 1530 1531 1531 1530 1530 1530 1529 1529 1529 1529 1528 1528 1528 1527 1527 1527 1527 1527 1527 1527 1527 1527 1527 1527 1528 1528 1528 1528 1528
1512 1512 1510 1513 1514 1513 1513 1514 1516 1516 1518 1520 1521 1523 1527 1529 1529 1529 1530 1531 1531 1532 1532 1532 1531 1531 1531 1531 1530 1530 1530 1529 1529 1529 1528 1528 1528 1528 1528 1528 1528 1528 1528 1528 1529 1529 1529 1529 1529
1513 1510 1512 1516 1515 1515 1515 1517 1517 1517 1519 1521 1522 1524 1528 1530 1530 1531 1531 1532 1532 1533 1533 1533 1532 1532 1532 1532 1532 1531 1531 1530 1530 1530 1529 1529 1529 1529 1529 1529 1529 1529 1529 1529 1529 1530 1530 1530 1530
1513 1510 1512 1514 1517 1516 1516 1518 1518 1518 1520 1522 1523 1524 1528 1531 1531 1531 1532 1533 1533 1534 1534 1535 1534 1534 1533 1533 1533 1533 1532 1531 1531 1531 1530 1530 1530 1530 1530 1530 1530 1530 1530 1530 1530 1530 1530 1530 1530
1513 1512 1513 1514 1517 1517 1517 1519 1520 1520 1522 1524 1525 1525 1528 1531 1531 1532 1533 1534 1535 1535 1535 1536 1536 1535 1535 1535 1534 1534 1533 1533 1532 1532 1531 1531 1531 1531 1531 1531 1531 1531 1531 1531 1531 1531 1531 1531 1531
1513 1513 1514 1515 1516 1516 1518 1519 1521 1522 1523 1525 1526 1527 1529 1531 1532 1533 1534 1535 1536 1536 1536 1537 1537 1537 1536 1536 1535 1535 1535 1534 1534 1533 1532 1532 1533 1533 1533 1532 1531 1531 1531 1531 1531 1531 1531 1532 1532
1512 1512 1513 1513 1513 1515 1518 1519 1521 1522 1523 1525 1527 1528 1529 1531 1533 1534 1535 1536 1537 1537 1537 1537 1537 1537 1537 1537 1537 1537 1536 1535 1535 1535 1534 1534 1534 1534 1533 1533 1532 1532 1532 1532 1532 1532 1532 1533 1534
1512 1512 1513 1515 1516 1517 1518 1520 1521 1521 1522 1524 1526 1528 1530 1531 1533 1534 1535 1536 1537 1538 1538 1538 1538 1538 1538 1538 1537 1537 1537 1536 1536 1536 1535 1535 1535 1534 1534 1534 1534 1534 1533 1533 1533 1534 1534 1534 1534
1513 1513 1514 1515 1517 1518 1519 1520 1521 1522 1524 1525 1526 1528 1530 1531 1533 1534 1536 1537 1538 1538 1538 1538 1539 1539 1539 1539 1538 1538 1537 1537 1537 1536 1536 1536 1536 1536 1535 1535 1535 1534 1534 1534 1534 1534 1535 1535 1535
1512 1514 1516 1517 1518 1519 1520 1521 1522 1524 1525 1525 1527 1528 1530 1532 1533 1535 1536 1537 1538 1538 1539 1539 1539 1539 1539 1539 1538 1538 1538 1538 1537 1537 1537 1537 1536 1536 1536 1536 1535 1535 1535 1535 1535 1535 1535 1535 1535
1513 1515 1516 1517 1518 1519 1519 1521 1522 1524 1525 1526 1527 1529 1531 1532 1534 1535 1536 1537 1538 1538 1539 1539 1539 1539 1539 1539 1539 1539 1538 1538 1538 1538 1538 1537 1537 1537 1537 1537 1536 1536 1536 1535 1536 1536 1535 1535 1535
1514 1514 1515 1516 1517 1518 1519 1521 1521 1523 1525 1526 1527 1529 1530 1532 1533 1534 1536 1537 1538 1538 1539 1539 1539 1539 1539 1539 1539 1539 1538 1538 1538 1538 1538 1538 1538 1538 1537 1537 1537 1537 1536 1536 1536 1536 1536 1536 1536
1512 1513 1516 1516 1516 1518 1520 1522 1520 1523 1524 1525 1527 1528 1530 1532 1533 1534 1535 1536 1537 1538 1539 1539 1539 1539 1539 1539 1539 1539 1539 1539 1539 1539 1539 1539 1539 1538 1538 1537 1537 1537 1537 1537 1536 1537 1537 1536 1536
1511 1513 1515 1515 1515 1516 1516 1519 1519 1522 1523 1524 1526 1527 1529 1530 1532 1533 1534 1535 1536 1537 1538 1539 1539 1539 1539 1539 1539 1539 1539 1539 1539 1539 1539 1539 1539 1538 1538 1537 1537 1537 1537 1537 1537 1537 1537 1537 1537
1512 1512 1514 1515 1513 1514 1516 1517 1518 1521 1522 1523 1524 1526 1527 1528 1530 1531 1533 1534 1535 1536 1537 1538 1539 1539 1539 1539 1539 1539 1539 1539 1539 1539 1539 1538 1538 1538 1538 1537 1537 1537 1537 1537 1537 1537 1537 1537 1537
1507 1510 1512 1512 1512 1514 1514 1515 1515 1518 1520 1521 1522 1523 1525 1527 1529 1530 1531 1533 1534 1535 1536 1537 1538 1538 1538 1538 1538 1538 1539 1539 1539 1538 1538 1538 1538 1538 1538 1538 1537 1537 1537 1536 1537 1537 1537 1537 1537
1507 1510 1511 1511 1512 1513 1513 1513 1513 1515 1517 1518 1519 1521 1523 1525 1527 1528 1530 1531 1532 1534 1535 1536 1536 1537 1537 1537 1538 1538 1538 1538 1538 1538 1538 1538 1538 1538 1537 1537 1537 1536 1536 1536 1536 1536 1536 1536 1537
1507 1508 1509 1511 1512 1512 1513 1512 1510 1511 1515 1517 1518 1519 1521 1523 1524 1526 1528 1529 1531 1532 1533 1534 1535 1535 1536 1536 1537 1537 1537 1538 1538 1537 1537 1537 1537 1537 1537 1536 1536 1536 1536 1535 1535 1535 1535 1536 1536
1507 1505 1507 1510 1512 1511 1512 1515 1506 1506 1510 1513 1515 1517 1519 1521 1522 1524 1526 1527 1528 1529 1530 1532 1533 1534 1534 1535 1535 1536 1536 1536 1536 1536 1536 1536 1536 1536 1536 1535 1535 1535 1535 1535 1535 1535 1535 1535 1535
1503 1505 1506 1508 1509 1510 1509 1512 1505 1504 1507 1508 1512 1514 1516 1518 1520 1521 1523 1524 1525 1527 1528 1529 1531 1531 1532 1533 1533 1534 1535 1535 1535 1535 1535 1535 1535 1535 1534 1534 1534 1534 1534 1534 1534 1534 1534 1534 1534
1504 1506 1507 1507 1507 1515 1507 1510 1508 1502 1504 1505 1508 1512 1514 1516 1517 1519 1520 1521 1523 1524 1525 1527 1528 1529 1530 1530 1531 1532 1533 1533 1534 1534 1534 1534 1534 1533 1533 1533 1533 1533 1533 1533 1533 1533 1533 1533 1533
1502 1506 1513 1515 1515 1511 1505 1509 1506 1501 1503 1505 1507 1510 1512 1513 1515 1516 1517 1518 1520 1522 1523 1524 1526 1526 1527 1528 1529 1530 1531 1531 1532 1532 1532 1532 1532 1532 1532 1532 1532 1531 1531 1531 1531 1531 1532 1532 1532
1499 1501 1510 1517 1514 1507 1506 1507 1501 1501 1504 1505 1507 1508 1510 1512 1513 1515 1516 1516 1518 1519 1521 1522 1523 1524 1525 1526 1527 1528 1529 1530 1530 1531 1531 1531 1531 1531 1530 1530 1530 1530 1530 1530 1530 1530 1530 1530 1530
1498 1499 1497 1502 1504 1508 1502 1500 1498 1501 1502 1504 1506 1508 1509 1510 1512 1513 1514 1515 1516 1518 1519 1520 1521 1522 1523 1524 1525 1526 1527 1528 1528 1529 1529 1529 1529 1529 1529 1529 1529 1529 1528 1528 1528 1528 1528 1528 1528
1496 1495 1500 1503 1511 1511 1504 1501 1498 1498 1500 1502 1505 1506 1508 1509 1511 1512 1512 1513 1514 1516 1517 1518 1519 1520 1521 1522 1523 1524 1525 1525 1526 1527 1527 1527 1527 1527 1527 1527 1527 1527 1527 1527 1526 1527 1526 1527 1527
1499 1500 1498 1499 1501 1506 1506 1502 1492 1495 1498 1501 1503 1505 1507 1508 1509 1510 1511 1511 1512 1514 1515 1515 1517 1518 1519 1520 1521 1522 1523 1523 1524 1524 1524 1525 1525 1525 1525 1525 1525 1525 1525 1525 1525 1525 1525 1525 1525
1495 1495 1497 1503 1501 1500 1502 1502 1495 1497 1499 1501 1502 1504 1506 1507 1508 1509 1510 1510 1511 1511 1512 1513 1514 1516 1517 1518 1519 1519 1520 1521 1522 1522 1522 1523 1523 1523 1523 1523 1523 1523 1523 1523 1523 1523 1523 1523 1523